This is the latest recevied weather packets stored in our database for station/object JA0BES-13. If no packets are shown the sender has not sent any weather packets the latest 10 day(s).
| Time | Temp. | Humidity | Pressure | Rain* | Wind** | Luminosity | Snow |
|---|---|---|---|---|---|---|---|
| 1777857844 | 20.56° C | 98% | 998.6 hPa | 5.08 mm | - | - | - |
| 1777857244 | 20.56° C | 97% | 998.7 hPa | 5.08 mm | - | - | - |
| 1777856643 | 20.56° C | 98% | 998.6 hPa | 5.08 mm | - | - | - |
| 1777856043 | 20° C | 100% | 998.6 hPa | 5.08 mm | - | - | - |
| 1777855442 | 20° C | 100% | 998.8 hPa | 5.08 mm | - | - | - |
| 1777854842 | 19.44° C | 100% | 998.9 hPa | 5.08 mm | - | - | - |
| 1777854241 | 19.44° C | 100% | 998.7 hPa | 5.08 mm | - | - | - |
| 1777853641 | 18.89° C | 100% | 998.7 hPa | 5.08 mm | - | - | - |
| 1777853041 | 18.33° C | 100% | 998.5 hPa | 5.08 mm | - | - | - |
| 1777852441 | 17.78° C | 100% | 998.6 hPa | 5.08 mm | - | - | - |
| 1777851840 | 17.78° C | 100% | 998.6 hPa | 5.08 mm | - | - | - |
| 1777851240 | 17.22° C | 100% | 998.6 hPa | 5.08 mm | - | - | - |
| 1777850639 | 17.22° C | 100% | 998.8 hPa | 5.08 mm | - | - | - |
| 1777850039 | 17.22° C | 100% | 998.7 hPa | 5.08 mm | - | - | - |
| 1777849439 | 16.67° C | 100% | 998.5 hPa | 5.08 mm | - | - | - |
| 1777848839 | 16.67° C | 100% | 998.5 hPa | 5.08 mm | - | - | - |
| 1777848238 | 16.67° C | 100% | 998.3 hPa | 5.08 mm | - | - | - |
| 1777847638 | 16.67° C | 100% | 998.3 hPa | 5.08 mm | - | - | - |
| 1777847037 | 16.67° C | 100% | 998.2 hPa | 5.08 mm | - | - | - |
| 1777846437 | 16.11° C | 100% | 998.4 hPa | 5.08 mm | - | - | - |
| 1777845837 | 16.11° C | 100% | 998.6 hPa | 5.08 mm | - | - | - |
| 1777845237 | 16.11° C | 100% | 998.4 hPa | 5.08 mm | - | - | - |
| 1777844636 | 16.11° C | 100% | 998.2 hPa | 5.08 mm | - | - | - |
| 1777844036 | 15.56° C | 100% | 998.1 hPa | 5.08 mm | - | - | - |
| 1777843435 | 15.56° C | 100% | 998.1 hPa | 5.08 mm | - | - | - |
* Rain since midnight (hover to see other rain measurements)
** Current wind speed in m/s (hover to see current wind gust speed)